www.pogodaiklimat.ru

Погода и климат >> Архив погоды >> Ирак >> Al-Khalis


ПОГОДА в Al-Khalis

  • Прогноз погоды в Al-Khalis
  • Монитор погоды в Al-Khalis
  • Климат города

АРХИВ ПОГОДЫ в Al-Khalis

Время (UTC), дата Ветер
(напр.,м/с)
 
Видим.   Явления Облачность Т
(С)
Тd
(С)
f
(%)
Тe
(С)
Тes
(С)
Комфортность P
(гПа)
Po
(гПа)
Тmin
(С)
Tmax
(С)
R
(мм)
R24
(мм)
S
(см)
18 11.12 ЮВ 2 10 км ясно +12.8 +9.8 82 +12 +12 1021.6 1022.0 +19.4
06 12.12 СЗ 2 10 км ясно +10.0 +8.5 90 +8 +11 1021.0 1021.0 +5.0
09 12.12 СЗ 2 10 км ясно +17.4 +11.1 66 +18 +24 1020.6 1021.0
12 12.12 В 4 10 км ясно +20.0 +10.8 55 +22 +23 комфорт 1019.0 1019.0
15 12.12 ЮВ 3 10 км ясно +16.0 +10.7 71 +16 +16 1019.0 1019.0
18 12.12 ЮВ 4 10 км ясно +14.2 +10.3 77 +13 +13 1019.2 1019.0 +20.0
06 13.12 Ю 6 6000 м ясно +13.6 +10.5 82 +11 +12 1021.7 1022.0 +9.0
09 13.12 Ю 4 10 км ясно +18.0 +11.4 65 +18 +22 1021.5 1022.0
12 13.12 ЮВ 3 10 км ясно +19.6 +11.2 58 +21 +23 комфорт 1020.2 1020.0
15 13.12 Ю 2 10 км ясно +16.0 +10.3 69 +16 +16 1021.5 1022.0
18 13.12 ЮВ 2 10 км ясно +13.8 +9.9 77 +13 +13 1023.2 1023.0 +20.0
06 14.12 С 4 10 км 3/0
[Ci sp]
+12.0 +8.8 81 +10 +11 1026.1 1026.0 +7.4
09 14.12 С 4 10 км ясно +17.0 +10.0 63 +17 +21 1026.3 1026.0
12 14.12 С 5 10 км ясно +18.0 +9.6 58 +18 +19 1025.2 1025.0
15 14.12 СЗ 3 10 км ясно +14.2 +9.5 73 +13 +13 1026.3 1026.0
06 15.12 СЗ 3 10 км ясно +10.2 +5.3 72 +8 +10 1027.9 1028.0 +5.5
12 15.12 СЗ 5 10 км ясно +17.2 +3.3 39 +17 +18 1025.1 1025.0
15 15.12 С 3 10 км ясно +13.5 +5.1 57 +13 +13 1025.2 1025.0
18 15.12 СЗ 3 10 км ясно +10.5 +6.9 78 +9 +9 1025.7 1026.0 +17.6
06 16.12 З 2 10 км 3/0
[Ci sp]
+10.4 +7.4 82 +9 +11 1026.2 1026.0 +5.2
12 16.12 СЗ 2 10 км 8/0
[Cs]
+17.0 +7.6 54 +17 +19 1023.4 1023.0
15 16.12 СЗ 2 10 км 8/0
[Ac trans Cs]
+13.4 +6.2 62 +13 +13 1023.1 1023.0
18 16.12 С 2 10 км 8/8 1050 м
[Sc]
+11.2 +7.4 77 +10 +10 1023.8 1024.0 +17.3
06 17.12 В 5 3000 м слабый дождь 10/10 900 м
[Cu Sc]
+11.2 +9.6 90 +8 +8 1020.4 1020.0 +9.5 7
09 17.12 СВ 4 4000 м слабый дождь 10/10 900 м
[Cu Sc]
+11.8 +10.2 90 +10 +10 1019.1 1019.0
12 17.12 В 5 4000 м слабый дождь 10/10 900 м
[Cu Sc]
+11.8 +10.2 90 +9 +9 1016.6 1017.0
15 17.12 ЮВ 7 8000 м в посл. час дождь 10/10 900 м
[Cu Sc]
+11.0 +9.4 90 +8 +8 1016.1 1016.0
18 17.12 В 2 8000 м дымка 10/10 900 м
[Cu Sc]
+12.0 +10.0 88 +11 +11 1017.6 1018.0 +12.2 12
06 18.12 ЮВ 2 4000 м дымка 10/10 900 м
[Cu Sc]
+11.4 +9.8 90 +10 +10 1022.9 1023.0 +10.2 0.4
12 18.12 СВ 2 10 км 10/10 900 м
[Cu Sc]
+14.0 +9.7 75 +14 +14 1023.0 1023.0
15 18.12 СЗ 2 5000 м дымка 10/10 900 м
[Cu Sc]
+12.3 +9.7 84 +11 +11 1023.6 1024.0

 

Местоположение метеостанции Al-Khalis (Ирак): широта 33.83 долгота 44.53 высота над уровнем моря 44 м.

В архиве по умолчанию представлена погода в Al-Khalis за последнюю неделю. Архивные данные за месяц целиком и за предыдущие месяцы, начиная с января 2011 года, Вы можете получить, выбрав интересующий диапазон дат из раскрывающегося списка и нажав кнопку "Ввод!".


*Определитесь, кто Вы:
робот инопланетянин человек

Внимание! Время в таблицах - всемирное. Для получения местного времени необходимо прибавить поправку, которая в Al-Khalis равна 3 ч.

Смотрите также архив погоды в соседних городах и на ближайших метеорологических станциях:

Погода в Ayn Al-Tamar (Ирак) (36 км)
Погода в Baghdad (Ирак) (72 км)
Погода в Heet (Ирак) (76 км)
Погода в Khanaqin (Ирак) (98 км)
Погода в Tikrit (Ирак) (112 км)
Погода в Azizyah (Ирак) (113 км)
Погода в Tuz (Ирак) (117 км)
Погода в Ramadi (Ирак) (120 км)
Погода в Karbalaa (Ирак) (143 км)
Погода в Hella (Ирак) (154 км)

Пояснения к столбцам:

Ветер - указаны скорость ветра в м/с - средняя за 10 мин, порывы в срок и между сроками (в фигурных скобках) и направление, откуда дует ветер: С - северный, СВ - северо-восточный, В - восточный, ЮВ - юго-восточный, Ю - южный, ЮЗ - юго-западный, З - западный, СЗ - северо-западный.
Видимость - горизонтальная дальность видимости в метрах или километрах. При видимости от 1 до 10 км при отсутствии осадков обычно наблюдается дымка, при ухудшении видимости до 1 км и менее - туман. В сухую погоду видимость может ухудшаться дымом, пылью или мглою.
Явления - указаны атмосферные явления, наблюдавшиеся в срок или в последний час перед сроком; фигурными скобками обозначены явления, наблюдавшиеся между сроками (за 1-3 часа до срока); квадратными скобками обозначены град или гололедные отложения с указанием их диаметра в мм.
Облачность - указаны через наклонную черту общая и нижняя облачность в баллах и высота нижней границы облаков в метрах; квадратными скобками обозначены формы облаков: Ci - перистые, Cs - перисто-слоистые, Cc - перисто-кучевые, Ac - высококучевые, As - высокослоистые, Sc - слоисто-кучевые, Ns - слоисто-дождевые, Cu - кучевые, Cb - кучево-дождевые. Подробнее классификацию облаков см. в Атласе облаков (PDF).
T - Температура воздуха - температура, измеренная на высоте 2 м над землей.
Td - Температура точки росы - температура, при понижении до которой содержащийся в воздухе водяной пар достигнет насыщения.
f - Относительная влажность воздуха - влажноcть воздуха, измеренная на высоте 2 м над землей.
Te - Эффективная температура - температура, которую ощущает одетый по сезону человек в тени. Характеристика душности погоды. При расчете учитывается влияние влажности воздуха и скорости ветра на теплоощущения человека.
Tes - Эффективная температура на солнце - температура, которую ощущает человек, с поправкой на солнечный нагрев. Характеристика знойности погоды. Зависит от высоты солнца над горизонтом, облачности и скорости ветра. Ночью, в пасмурную погоду, а также при ветре 12 м/с и более поправка равна нулю.
P - Атмосферное давление - приведенное к уровню моря атмосферное давление.
Po - Атмосферное давление - измеренное на уровне метеостанции атмосферное давление.
Tmin - Минимальная температура - минимум температуры воздуха на высоте 2 м над землей.
Tmax - Максимальная температура - максимум температуры воздуха на высоте 2 м над землей.
R - Количество осадков - Количество выпавших осадков за период времени, мм. При наведении курсора мыши на число - период времени, за который выпало указанное количество осадков.
R24 - Количество осадков - Количество выпавших осадков за 24 часа, мм.
S - Снежный покров - Высота снежного покрова, см. При наведении курсора мыши на число - состояние снежного покрова и степень покрытия местности в баллах.